This demonstration page uses our WeatherBlox Daily Observations layout. Learn more.

Left ArrowRight Arrow

44.8408, -93.29828

Hourly Observations for November 3, 2015

Temp ( °F °C ) Dew Point ( °F °C ) Humidity (%) Winds ( mph kmh ) Pressure ( in mb ) Visibility ( mi km ) Precip ( " mm )
12:53 am 00:53 Mostly Clear 51 10.6 47 8.3 86 86 ESE 3 6 29.92 1013 10 16 0.00 0.00
1:53 am 01:53 Clear 50 10 47 8.3 89 89 Calm 29.93 1014 10 16 0.00 0.00
2:53 am 02:53 Clear 48 8.9 45 7.2 89 89 Calm 29.94 1014 10 16 0.00 0.00
3:53 am 03:53 Clear with Mist and Fog 46 7.8 44 6.7 93 93 NE 5 7 29.95 1014 4 6 0.00 0.00
4:53 am 04:53 Clear with Mist and Fog 48 8.9 45 7.2 89 89 ESE 3 6 29.95 1014 5 8 0.00 0.00
5:53 am 05:53 Mostly Clear 47 8.3 45 7.2 93 93 E 8 13 29.94 1014 7 11 0.00 0.00
6:53 am 06:53 Mostly Clear with Mist and Fog 48 8.9 46 7.8 93 93 ESE 8 13 29.94 1014 5 8 0.00 0.00
7:53 am 07:53 Mostly Sunny 49 9.4 46 7.8 90 90 ESE 7 11 29.96 1014 7 11 0.00 0.00
8:53 am 08:53 Mostly Sunny 52 11.1 47 8.3 83 83 SE 7 11 29.96 1015 9 14 0.00 0.00
9:53 am 09:53 Mostly Sunny 55 12.8 47 8.3 74 74 ESE 7 11 29.96 1014 8 13 0.00 0.00
10:53 am 10:53 Sunny 60 15.6 47 8.3 62 62 SE 9 15 29.94 1014 9 14 0.00 0.00
11:53 am 11:53 Sunny 64 17.8 48 8.9 56 56 SE 10 17 29.91 1013 9 14 0.00 0.00
12:53 pm 12:53 Sunny 67 19.4 49 9.4 53 53 SSE 10 17 29.89 1012 9 14 0.00 0.00
1:53 pm 13:53 Sunny 70 21.1 48 8.9 46 46 SSE 14 22 29.87 1012 10 16 0.00 0.00
2:53 pm 14:53 Sunny 70 21.1 49 9.4 47 47 SSE 16 26 29.86 1011 10 16 0.00 0.00
3:53 pm 15:53 Sunny 69 20.6 47 8.3 45 45 SSE 14 22 29.86 1011 10 16 0.00 0.00
4:53 pm 16:53 Sunny 65 18.3 46 7.8 51 51 SSE 13 20 29.85 1011 10 16 0.00 0.00
5:53 pm 17:53 Clear 64 17.8 46 7.8 52 52 SSE 15 24 29.85 1011 10 16 0.00 0.00
6:53 pm 18:53 Clear 62 16.7 50 10 65 65 SE 17 28 29.84 1011 9 14 0.00 0.00
7:53 pm 19:53 Clear 62 16.7 51 10.6 67 67 S 10 17 29.85 1011 9 14 0.00 0.00
8:53 pm 20:53 Clear 61 16.1 52 11.1 72 72 SSE 12 19 29.87 1012 9 14 0.00 0.00
9:53 pm 21:53 Clear 59 15 52 11.1 78 78 SSE 8 13 29.88 1012 8 13 0.00 0.00
11:53 pm 23:53 Clear 58 14.4 52 11.1 81 81 SSE 9 15 29.88 1012 7 11 0.00 0.00

Powered by AerisWeather